When you browse on this site, cookies collect data to enhance your experience and personalize the content and advertising you see.
Visit our Privacy Policy to learn more. By continuing to use the site, you agree to this use of cookies and data.
  • In Österreich
  • Länderverzeichnis
  • Für 7 Tage
  • Wassertemperatur
  • Satellitenkarten
  • Wetterkarte
  • News
  • Widgets
  • user-avatar
    Anmelden

    Stündliche Wetter Ali Bajramli

    Heute, 19 Mai, Sonntag

    Zeit Temperatur Niederschläge Wind Luftdruck Luftfeuchtigkeit
    00:00 +23°C° 0 mm 2 m/S 754 mmHg 68%
    01:00 +21°C° 0 mm 2 m/S 754 mmHg 69%
    02:00 +22°C° 0 mm 1 m/S 754 mmHg 70%
    03:00 +22°C° 0 mm 1 m/S 754 mmHg 75%
    04:00 +22°C° 0 mm 1 m/S 754 mmHg 73%
    05:00 +22°C° 0 mm 1 m/S 754 mmHg 72%
    06:00 +23°C° 0 mm 1 m/S 754 mmHg 70%
    07:00 +25°C° 0 mm 1 m/S 753 mmHg 64%
    08:00 +26°C° 0 mm 1 m/S 753 mmHg 57%
    09:00 +29°C° 0 mm 1 m/S 753 mmHg 49%
    10:00 +30°C° 0 mm 2 m/S 753 mmHg 45%
    11:00 +32°C° 0 mm 2 m/S 753 mmHg 40%
    12:00 +35°C° 0 mm 2 m/S 752 mmHg 36%
    13:00 +35°C° 0 mm 2 m/S 752 mmHg 34%
    14:00 +36°C° 0 mm 3 m/S 752 mmHg 32%
    15:00 +37°C° 0 mm 2 m/S 752 mmHg 29%
    16:00 +35°C° 0 mm 3 m/S 752 mmHg 31%
    17:00 +34°C° 0 mm 5 m/S 752 mmHg 34%
    18:00 +32°C° 0 mm 6 m/S 752 mmHg 37%
    19:00 +30°C° 0 mm 5 m/S 753 mmHg 41%
    20:00 +28°C° 0 mm 5 m/S 753 mmHg 45%
    21:00 +27°C° 0 mm 5 m/S 754 mmHg 49%
    22:00 +26°C° 0 mm 5 m/S 754 mmHg 54%
    23:00 +26°C° 0 mm 5 m/S 754 mmHg 59%

    Morgen, 20 Mai, Montag

    Zeit Temperatur Niederschläge Wind Luftdruck Luftfeuchtigkeit
    00:00 +24°C° 0 mm 6 m/S 754 mmHg 64%
    01:00 +25°C° 0.3 mm 4 m/S 754 mmHg 66%
    02:00 +25°C° 0.3 mm 3 m/S 754 mmHg 67%
    03:00 +24°C° 0.3 mm 2 m/S 755 mmHg 68%
    04:00 +24°C° 0 mm 2 m/S 755 mmHg 67%
    05:00 +24°C° 0 mm 3 m/S 755 mmHg 67%
    06:00 +24°C° 0 mm 3 m/S 755 mmHg 66%
    07:00 +26°C° 0.3 mm 3 m/S 756 mmHg 62%
    08:00 +27°C° 0.3 mm 2 m/S 756 mmHg 58%
    09:00 +28°C° 0.3 mm 2 m/S 756 mmHg 54%
    10:00 +29°C° 0 mm 3 m/S 756 mmHg 47%
    11:00 +32°C° 0 mm 4 m/S 756 mmHg 41%
    12:00 +33°C° 0 mm 6 m/S 756 mmHg 34%
    13:00 +33°C° 0 mm 8 m/S 756 mmHg 32%
    14:00 +33°C° 0 mm 9 m/S 756 mmHg 30%
    15:00 +33°C° 0 mm 11 m/S 756 mmHg 28%
    16:00 +31°C° 0 mm 11 m/S 757 mmHg 28%
    17:00 +29°C° 0 mm 11 m/S 757 mmHg 27%
    18:00 +28°C° 0 mm 11 m/S 757 mmHg 27%
    19:00 +27°C° 0 mm 11 m/S 758 mmHg 27%
    20:00 +26°C° 0 mm 10 m/S 758 mmHg 26%
    21:00 +24°C° 0 mm 9 m/S 758 mmHg 26%
    22:00 +24°C° 0.1 mm 8 m/S 759 mmHg 27%
    23:00 +23°C° 0.1 mm 7 m/S 759 mmHg 28%

    übermorgen, 21 Mai, Dienstag

    Zeit Temperatur Niederschläge Wind Luftdruck Luftfeuchtigkeit
    00:00 +23°C° 0.1 mm 7 m/S 759 mmHg 29%
    01:00 +22°C° 0 mm 6 m/S 759 mmHg 32%
    02:00 +22°C° 0 mm 5 m/S 759 mmHg 35%
    03:00 +21°C° 0 mm 4 m/S 759 mmHg 38%
    04:00 +21°C° 0 mm 5 m/S 760 mmHg 39%
    05:00 +22°C° 0 mm 5 m/S 760 mmHg 39%
    06:00 +22°C° 0 mm 6 m/S 760 mmHg 40%
    07:00 +23°C° 0 mm 7 m/S 761 mmHg 38%
    08:00 +24°C° 0 mm 8 m/S 761 mmHg 35%
    09:00 +26°C° 0 mm 9 m/S 762 mmHg 33%
    10:00 +27°C° 0 mm 9 m/S 762 mmHg 32%
    11:00 +28°C° 0 mm 9 m/S 762 mmHg 31%
    12:00 +28°C° 0 mm 9 m/S 762 mmHg 30%
    13:00 +28°C° 0 mm 9 m/S 762 mmHg 29%
    14:00 +28°C° 0 mm 9 m/S 762 mmHg 29%
    15:00 +28°C° 0 mm 9 m/S 762 mmHg 29%
    16:00 +26°C° 0 mm 9 m/S 762 mmHg 30%
    17:00 +24°C° 0 mm 9 m/S 762 mmHg 31%
    18:00 +23°C° 0 mm 9 m/S 762 mmHg 33%
    19:00 +22°C° 0 mm 8 m/S 763 mmHg 34%
    20:00 +21°C° 0 mm 7 m/S 763 mmHg 34%
    21:00 +20°C° 0 mm 7 m/S 764 mmHg 35%
    22:00 +20°C° 0 mm 5 m/S 764 mmHg 37%
    23:00 +20°C° 0 mm 4 m/S 764 mmHg 38%

    22 Mai, Mittwoch

    Zeit Temperatur Niederschläge Wind Luftdruck Luftfeuchtigkeit
    00:00 +19°C° 0 mm 3 m/S 763 mmHg 39%
    01:00 +19°C° 0 mm 2 m/S 763 mmHg 42%
    02:00 +18°C° 0 mm 2 m/S 763 mmHg 45%
    03:00 +19°C° 0 mm 1 m/S 763 mmHg 47%
    04:00 +19°C° 0 mm 1 m/S 763 mmHg 46%
    05:00 +20°C° 0 mm 1 m/S 763 mmHg 45%
    06:00 +20°C° 0 mm 1 m/S 762 mmHg 43%
    07:00 +21°C° 0 mm 1 m/S 762 mmHg 39%
    08:00 +23°C° 0 mm 1 m/S 762 mmHg 34%
    09:00 +24°C° 0 mm 1 m/S 762 mmHg 30%
    10:00 +25°C° 0 mm 1 m/S 761 mmHg 27%
    11:00 +27°C° 0 mm 2 m/S 761 mmHg 24%
    12:00 +28°C° 0 mm 2 m/S 760 mmHg 22%
    13:00 +28°C° 0 mm 3 m/S 759 mmHg 21%
    14:00 +29°C° 0 mm 3 m/S 759 mmHg 21%
    15:00 +29°C° 0 mm 4 m/S 758 mmHg 20%
    16:00 +28°C° 0 mm 4 m/S 758 mmHg 22%
    17:00 +28°C° 0 mm 5 m/S 757 mmHg 24%
    18:00 +27°C° 0 mm 5 m/S 757 mmHg 25%
    19:00 +26°C° 0 mm 4 m/S 757 mmHg 28%
    20:00 +25°C° 0 mm 2 m/S 758 mmHg 31%
    21:00 +24°C° 0 mm 1 m/S 758 mmHg 34%
    22:00 +23°C° 0 mm 2 m/S 758 mmHg 35%
    23:00 +23°C° 0 mm 2 m/S 758 mmHg 36%

    23 Mai, Donnerstag

    Zeit Temperatur Niederschläge Wind Luftdruck Luftfeuchtigkeit
    00:00 +22°C° 0 mm 3 m/S 757 mmHg 36%
    01:00 +22°C° 0 mm 3 m/S 757 mmHg 41%
    02:00 +21°C° 0 mm 3 m/S 757 mmHg 46%
    03:00 +21°C° 0 mm 3 m/S 757 mmHg 50%
    04:00 +21°C° 0 mm 4 m/S 757 mmHg 54%
    05:00 +21°C° 0 mm 4 m/S 757 mmHg 57%
    06:00 +21°C° 0 mm 5 m/S 758 mmHg 60%
    07:00 +22°C° 0 mm 4 m/S 758 mmHg 53%
    08:00 +25°C° 0 mm 3 m/S 758 mmHg 45%
    09:00 +26°C° 0 mm 2 m/S 758 mmHg 38%
    10:00 +27°C° 0 mm 2 m/S 758 mmHg 34%
    11:00 +29°C° 0 mm 2 m/S 757 mmHg 31%
    12:00 +30°C° 0 mm 2 m/S 757 mmHg 27%
    13:00 +30°C° 0 mm 3 m/S 757 mmHg 28%
    14:00 +32°C° 0 mm 4 m/S 756 mmHg 29%
    15:00 +32°C° 0 mm 5 m/S 756 mmHg 29%
    16:00 +29°C° 0 mm 5 m/S 756 mmHg 37%
    17:00 +27°C° 0 mm 6 m/S 756 mmHg 44%
    18:00 +24°C° 0 mm 7 m/S 757 mmHg 52%
    19:00 +24°C° 0 mm 6 m/S 757 mmHg 51%
    20:00 +23°C° 0 mm 5 m/S 758 mmHg 51%
    21:00 +23°C° 0 mm 4 m/S 759 mmHg 51%
    22:00 +22°C° 0 mm 4 m/S 758 mmHg 53%
    23:00 +22°C° 0 mm 3 m/S 758 mmHg 56%

    24 Mai, Freitag

    Zeit Temperatur Niederschläge Wind Luftdruck Luftfeuchtigkeit
    00:00 +21°C° 0 mm 2 m/S 758 mmHg 59%
    01:00 +21°C° 0 mm 2 m/S 758 mmHg 61%
    02:00 +20°C° 0 mm 2 m/S 758 mmHg 64%
    03:00 +21°C° 0 mm 1 m/S 758 mmHg 66%
    04:00 +21°C° 0 mm 1 m/S 758 mmHg 64%
    05:00 +20°C° 0 mm 2 m/S 758 mmHg 61%
    06:00 +21°C° 0 mm 2 m/S 758 mmHg 59%
    07:00 +23°C° 0 mm 2 m/S 758 mmHg 55%
    08:00 +24°C° 0 mm 2 m/S 758 mmHg 51%
    09:00 +25°C° 0 mm 3 m/S 758 mmHg 47%
    10:00 +26°C° 0 mm 2 m/S 758 mmHg 45%
    11:00 +28°C° 0 mm 2 m/S 758 mmHg 42%
    12:00 +29°C° 0 mm 2 m/S 757 mmHg 39%
    13:00 +29°C° 0 mm 3 m/S 757 mmHg 37%
    14:00 +30°C° 0 mm 3 m/S 757 mmHg 36%
    15:00 +32°C° 0 mm 4 m/S 757 mmHg 35%
    16:00 +29°C° 0 mm 4 m/S 757 mmHg 38%
    17:00 +28°C° 0 mm 5 m/S 757 mmHg 40%
    18:00 +27°C° 0 mm 6 m/S 757 mmHg 43%
    19:00 +26°C° 0 mm 5 m/S 758 mmHg 48%
    20:00 +25°C° 0 mm 5 m/S 758 mmHg 52%
    21:00 +23°C° 0 mm 4 m/S 758 mmHg 57%
    22:00 +22°C° 0 mm 3 m/S 758 mmHg 60%
    23:00 +23°C° 0 mm 2 m/S 758 mmHg 64%
    Mehr zeigen